Location: Prague
(50.0984°N, 14.4360°E)
Time: 12:09:50
(UTC+01:00)

Tiangong 2 - Visible Passes

Search period start: 24 March 2019 00:00
Search period end: 03 April 2019 01:00
Orbit: 380 x 390 km, 42.8° (Epoch: 24 March)

Date Brightness Start Highest point End Pass type
(mag) Time Alt. Az. Time Alt. Az. Time Alt. Az.
31 Mar 3.5 20:51:04 10° S 20:51:27 11° S 20:51:27 11° S visible
01 Apr 3.4 21:26:32 10° SW 21:27:19 14° SSW 21:27:19 14° SSW visible
02 Apr 3.1 20:27:34 10° SSW 20:29:27 15° SSE 20:30:48 12° SE visible
